logo tempoitalia

Diretta Meteo Chester, Stati Uniti (USA)lunedì 31 agosto ore 02:35

Mappa
Sereno 19 °C Sereno 24 Ore: T.min 17 T.max 27
Ponente Ovest/Nord-Ovest Km/h 11.1 Punto di rugiada: 19 °C Umidità: 100% Visibilità: 10 Km
Il sole sorge alle: 06:15 Il sole tramonta alle: 19:24
31 Agosto 2026 02:35 tempo osservato: Sereno Sereno 19 100 1018 vento: Nord O/NO 11.1
31 Agosto 2026 02:15 tempo osservato: Sereno Sereno 19 100 1018 vento: Nord O/NO 9.3
31 Agosto 2026 01:55 tempo osservato: Sereno Sereno 20 93 1018 vento: Nord O/NO 9.3
31 Agosto 2026 01:35 tempo osservato: Sereno Sereno 20 93 1018 vento: Nord O/NO 11.1
31 Agosto 2026 01:15 tempo osservato: Sereno Sereno 20 100 1018 vento: Nord NO 13
31 Agosto 2026 00:55 tempo osservato: Molto Nuvoloso Molto Nuvoloso 21 100 1018 vento: Nord O/NO 11.1
31 Agosto 2026 00:35 tempo osservato: Molto Nuvoloso Molto Nuvoloso 21 100 1018 vento: Nord NO 7.4
31 Agosto 2026 00:15 tempo osservato: Molto Nuvoloso Molto Nuvoloso 21 100 1018 vento: Nord O/NO 9.3
30 Agosto 2026 23:55 tempo osservato: Molto Nuvoloso Molto Nuvoloso 22 100 1018 vento: Nord N 5.5
30 Agosto 2026 23:35 tempo osservato: Pioggia Pioggia 22 100 1018 vento: Nord N 9.3
30 Agosto 2026 23:15 tempo osservato: Pioggia Pioggia 22 100 1018 vento: Nord N 5.5
30 Agosto 2026 22:55 tempo osservato: Pioviggine Pioviggine 22 100 1018 vento: Nord N 9.3
30 Agosto 2026 22:35 tempo osservato: Molto Nuvoloso Molto Nuvoloso 22 100 1018 vento: Nord N 11.1
30 Agosto 2026 22:15 tempo osservato: Molto Nuvoloso Molto Nuvoloso 22 100 1018 vento: Nord S 13
30 Agosto 2026 21:55 tempo osservato: Molto Nuvoloso Molto Nuvoloso 22 100 1018 vento: Nord N 9.3
30 Agosto 2026 21:35 tempo osservato: Pioggia Pioggia 22 100 1018 vento: Nord N 11.1
30 Agosto 2026 21:15 tempo osservato: Pioggia Pioggia 22 100 1018 vento: Nord S 9.3
30 Agosto 2026 20:55 tempo osservato: Sereno Sereno 22 100 1018 vento: Nord N 0
30 Agosto 2026 20:35 tempo osservato: Pioviggine Pioviggine 23 94 1018 vento: Nord N 7.4
30 Agosto 2026 20:15 tempo osservato: Poco Nuvoloso Poco Nuvoloso 23 94 1018 vento: Nord S 11.1
30 Agosto 2026 19:55 tempo osservato: Molto Nuvoloso Molto Nuvoloso 23 88 1018 vento: Nord N 9.3
30 Agosto 2026 19:35 tempo osservato: Nuvoloso Nuvoloso 23 88 1018 vento: Nord N 7.4
30 Agosto 2026 19:15 tempo osservato: Sereno Sereno 23 88 1018 vento: Nord S 11.1
30 Agosto 2026 18:55 tempo osservato: Sereno Sereno 23 88 1018 vento: Nord N 9.3
30 Agosto 2026 18:35 tempo osservato: Sereno Sereno 23 88 1018 vento: Nord N 9.3
30 Agosto 2026 18:15 tempo osservato: Sereno Sereno 24 78 1018 vento: Nord S 11.1
30 Agosto 2026 17:55 tempo osservato: Poco Nuvoloso Poco Nuvoloso 24 78 1018 vento: Nord N 11.1
30 Agosto 2026 17:35 tempo osservato: Nuvoloso Nuvoloso 24 78 1018 vento: Nord N 7.4
30 Agosto 2026 17:15 tempo osservato: Molto Nuvoloso Molto Nuvoloso 24 73 1018 vento: Nord N 9.3
30 Agosto 2026 16:55 tempo osservato: Nuvoloso Nuvoloso 24 69 1018 vento: Nord S 9.3
30 Agosto 2026 16:35 tempo osservato: Sereno Sereno 25 65 1018 vento: Nord S 11.1
30 Agosto 2026 16:15 tempo osservato: Poco Nuvoloso Poco Nuvoloso 26 57 1018 vento: Nord S/SO 14.8
30 Agosto 2026 15:55 tempo osservato: Poco Nuvoloso Poco Nuvoloso 26 54 1018 vento: Nord N 9.3
30 Agosto 2026 15:35 tempo osservato: Nuvoloso Nuvoloso 27 50 1019 vento: Nord S/SO 13
30 Agosto 2026 15:15 tempo osservato: Molto Nuvoloso Molto Nuvoloso 26 50 1019 vento: Nord N 7.4
30 Agosto 2026 14:55 tempo osservato: Nuvoloso Nuvoloso 27 44 1019 vento: Nord N 11.1
30 Agosto 2026 14:35 tempo osservato: Sereno Sereno 26 50 1019 vento: Nord N 9.3
30 Agosto 2026 14:15 tempo osservato: Sereno Sereno 26 47 1020 vento: Nord S 14.8
30 Agosto 2026 13:55 tempo osservato: Poco Nuvoloso Poco Nuvoloso 26 47 1020 vento: Nord S 18.5
30 Agosto 2026 13:35 tempo osservato: Nuvoloso Nuvoloso 27 44 1020 vento: Nord S 20.3
30 Agosto 2026 13:15 tempo osservato: Sereno Sereno 27 44 1020 vento: Nord S/SO 16.7
30 Agosto 2026 12:55 tempo osservato: Sereno Sereno 26 44 1020 vento: Nord S/SO 18.5
30 Agosto 2026 12:35 tempo osservato: Sereno Sereno 26 47 1020 vento: Nord N 11.1
30 Agosto 2026 12:15 tempo osservato: Sereno Sereno 26 47 1020 vento: Nord 168.4
30 Agosto 2026 11:55 tempo osservato: Poco Nuvoloso Poco Nuvoloso 26 50 1021 vento: Nord S/SO 13
30 Agosto 2026 11:35 tempo osservato: Nuvoloso Nuvoloso 25 50 1021 vento: Nord S/SO 14.8
30 Agosto 2026 11:15 tempo osservato: Sereno Sereno 26 50 1021 vento: Nord S/SO 13
30 Agosto 2026 10:55 tempo osservato: Sereno Sereno 25 53 1021 vento: Nord S 11.1
30 Agosto 2026 10:35 tempo osservato: Sereno Sereno 25 53 1021 vento: Nord SO 14.8
30 Agosto 2026 10:15 tempo osservato: Sereno Sereno 24 60 1022 vento: Nord N 9.3
30 Agosto 2026 09:55 tempo osservato: Sereno Sereno 23 64 1022 vento: Nord N 11.1
30 Agosto 2026 09:35 tempo osservato: Sereno Sereno 23 60 1022 vento: Nord N 11.1
30 Agosto 2026 09:15 tempo osservato: Sereno Sereno 22 64 1022 vento: Nord S/SO 11.1
30 Agosto 2026 08:55 tempo osservato: Sereno Sereno 21 68 1022 vento: Nord N 9.3
30 Agosto 2026 08:35 tempo osservato: Sereno Sereno 20 72 1022 vento: Nord SO 11.1
30 Agosto 2026 08:15 tempo osservato: Sereno Sereno 19 72 1022 vento: Nord N 9.3
30 Agosto 2026 07:55 tempo osservato: Sereno Sereno 19 72 1022 vento: Nord N 7.4
30 Agosto 2026 07:35 tempo osservato: Sereno Sereno 19 72 1022 vento: Nord N 11.1
30 Agosto 2026 07:15 tempo osservato: Sereno Sereno 19 72 1022 vento: Nord S/SO 9.3
30 Agosto 2026 06:55 tempo osservato: Sereno Sereno 18 77 1022 vento: Nord N 9.3
30 Agosto 2026 06:35 tempo osservato: Sereno Sereno 18 82 1022 vento: Nord SO 7.4
30 Agosto 2026 06:15 tempo osservato: Sereno Sereno 18 82 1022 vento: Nord N 7.4
30 Agosto 2026 05:55 tempo osservato: Sereno Sereno 18 77 1022 vento: Nord SO 7.4
30 Agosto 2026 05:35 tempo osservato: Sereno Sereno 18 82 1022 vento: Nord N 7.4
30 Agosto 2026 05:15 tempo osservato: Sereno Sereno 18 88 1022 vento: Nord N 7.4
30 Agosto 2026 04:55 tempo osservato: Sereno Sereno 18 88 1022 vento: Nord N 9.3
30 Agosto 2026 04:35 tempo osservato: Sereno Sereno 18 93 1022 vento: Nord N 5.5
30 Agosto 2026 04:15 tempo osservato: Sereno Sereno 18 93 1022 vento: Nord N 5.5
30 Agosto 2026 03:55 tempo osservato: Sereno Sereno 18 93 1022 vento: Nord S/SO 7.4
30 Agosto 2026 03:35 tempo osservato: Sereno Sereno 18 93 1023 vento: Nord N 7.4
30 Agosto 2026 03:15 tempo osservato: Sereno Sereno 18 88 1023 vento: Nord N 7.4
30 Agosto 2026 02:55 tempo osservato: Sereno Sereno 17 93 1022 vento: Nord SO 7.4
30 Agosto 2026 02:35 tempo osservato: Sereno Sereno 17 88 1022 vento: Nord N 5.5